Marrakech, Morocco

9:55 AM WEST on April 26, 2017 (GMT +0100)
Marrakech

Weather History for GMMX - March, 2012

Change the Weather History Date:

Tuesday, March 27, 2012

  Actual Average Record
Temperature  
Mean Temperature 76 °F -  
Max Temperature 93 °F 75 °F 93 °F (2012)
Min Temperature 59 °F 52 °F 46 °F (1999)
Cooling Degree Days 11    
Growing Degree Days 26 (Base 50)    
Moisture  
Dew Point 44 °F    
Average Humidity 34    
Maximum Humidity 63    
Minimum Humidity 7    
Precipitation  
Precipitation 0.00 in 0.05 in - ()
Sea Level Pressure  
Sea Level Pressure 29.89 in    
Wind  
Wind Speed 5 mph ()    
Max Wind Speed 21 mph    
Max Gust Speed 32 mph    
Visibility 3.9 miles    
Events Thunderstorm    
Averages and records for this station are not official NWS values.
T = Trace of Precipitation, MM = Missing Value Source: Averaged Metar Reports

Daily Weather History Graph

Daily Weather History Graph

Search for Another Location

Airport or City:

Trip Planner

Search our weather history database for the weather conditions in past years. The results will help you decide how hot, cold, wet, or windy it might be!

Date:

Astronomy

Mar. 27, 2012 Rise Set
Actual Time 6:26 AM WET 6:48 PM WET
Civil Twilight 6:02 AM WET 7:12 PM WET
Nautical Twilight 5:33 AM WET 7:41 PM WET
Astronomical Twilight 5:04 AM WET 8:10 PM WET
Moon 9:05 AM WET (3/27) 11:21 PM WET (3/27)
Length of Visible Light 13h 10m
Length of Day
12h 21m
Waxing Crescent, 20% of the Moon is Illuminated
Mar 27
Waxing Crescent
Mar 30
First Quarter
Apr 6
Full
Apr 13
Last Quarter
Apr 21
New

Hourly Weather History & Observations

Time (WET) Temp. Dew Point Humidity Pressure Visibility Wind Dir Wind Speed Gust Speed Precip Events Conditions
12:00 AM 71 °F 45 °F 28% 29.89 in 5 mi SSE 3.5 mph - -   Scattered Clouds
12:00 AM 71.6 °F 44.6 °F 38% 29.95 in 5.0 mi South 3.5 mph - N/A   Partly Cloudy
12:30 AM 69.8 °F 44.6 °F 40% 29.95 in 4.3 mi ESE 2.3 mph - N/A   Partly Cloudy
1:00 AM 68.0 °F 46.4 °F 46% 29.95 in 4.3 mi ENE 3.5 mph - N/A   Partly Cloudy
1:30 AM 66.2 °F 46.4 °F 49% 29.92 in 4.3 mi ENE 3.5 mph - N/A   Partly Cloudy
2:00 AM 66.2 °F 48.2 °F 52% 29.92 in 4.3 mi East 5.8 mph - N/A   Partly Cloudy
2:30 AM 64.4 °F 48.2 °F 56% 29.92 in 4.3 mi Variable 2.3 mph - N/A   Partly Cloudy
3:00 AM 63 °F 49 °F 50% 29.88 in 4 mi East 4.6 mph - -   Scattered Clouds
3:00 AM 64.4 °F 50.0 °F 59% 29.92 in 4.3 mi East 3.5 mph - N/A   Partly Cloudy
3:30 AM 62.6 °F 48.2 °F 59% 29.89 in 4.3 mi East 3.5 mph - N/A   Partly Cloudy
4:00 AM 60.8 °F 48.2 °F 63% 29.89 in 4.3 mi East 5.8 mph - N/A   Partly Cloudy
4:30 AM 60.8 °F 46.4 °F 59% 29.89 in 4.3 mi East 3.5 mph - N/A   Partly Cloudy
5:00 AM 62.6 °F 46.4 °F 55% 29.89 in 4.3 mi East 4.6 mph - N/A   Partly Cloudy
5:30 AM 60.8 °F 46.4 °F 59% 29.89 in 4.3 mi ENE 4.6 mph - N/A   Partly Cloudy
6:00 AM 61 °F 46 °F 48% 29.88 in 4 mi ENE 3.5 mph - -   Scattered Clouds
6:00 AM 60.8 °F 46.4 °F 59% 29.92 in 4.3 mi ENE 3.5 mph - N/A   Partly Cloudy
6:30 AM 60.8 °F 46.4 °F 59% 29.92 in 4.3 mi East 5.8 mph - N/A   Partly Cloudy
7:00 AM 62.6 °F 46.4 °F 55% 29.92 in 4.3 mi East 5.8 mph - N/A   Unknown
7:30 AM 62.6 °F 46.4 °F 55% 29.92 in 3.7 mi East 3.5 mph - N/A   Unknown
8:00 AM 64.4 °F 46.4 °F 52% 29.92 in 3.7 mi Variable 2.3 mph - N/A   Unknown
8:30 AM 69.8 °F 46.4 °F 43% 29.92 in 3.1 mi Calm Calm - N/A   Unknown
9:00 AM 74 °F 47 °F 27% 29.87 in 3 mi NNE 3.5 mph - -  
9:00 AM 73.4 °F 46.4 °F 38% 29.92 in 3.1 mi NNE 3.5 mph - N/A   Unknown
9:30 AM 77.0 °F 48.2 °F 36% 29.92 in 3.1 mi Variable 2.3 mph - N/A   Unknown
10:00 AM 78.8 °F 48.2 °F 34% 29.92 in 3.1 mi Variable 2.3 mph - N/A   Unknown
10:16 AM 80.6 °F 48.2 °F 32% 29.92 in 2.5 mi NNE 3.5 mph - N/A   Haze
10:30 AM 80.6 °F 48.2 °F 32% 29.92 in 2.5 mi NNE 3.5 mph - N/A   Haze
10:58 AM 82.4 °F 48.2 °F 30% 29.92 in 3.1 mi North 4.6 mph - N/A   Unknown
11:00 AM 82.4 °F 48.2 °F 30% 29.92 in 2.5 mi North 4.6 mph - N/A   Haze
11:30 AM 84.2 °F 48.2 °F 29% 29.92 in 3.1 mi North 5.8 mph - N/A   Unknown
12:00 PM 87 °F 43 °F 12% 29.81 in 3 mi NNE 4.6 mph - -   Clear
12:00 PM 87.8 °F 42.8 °F 21% 29.92 in 3.1 mi NNE 4.6 mph - N/A   Unknown
12:30 PM 89.6 °F 41.0 °F 18% 29.89 in 3.7 mi North 5.8 mph - N/A   Unknown
1:00 PM 89.6 °F 39.2 °F 17% 29.89 in 3.7 mi Variable 4.6 mph - N/A   Unknown
1:30 PM 91.4 °F 35.6 °F 14% 29.86 in 4.3 mi NNW 8.1 mph - N/A   Unknown
2:00 PM 91.4 °F 35.6 °F 14% 29.86 in 4.3 mi NW 9.2 mph - N/A   Mostly Cloudy
2:30 PM 91.4 °F 35.6 °F 14% 29.86 in 5.0 mi NW 8.1 mph - N/A   Mostly Cloudy
3:00 PM 92 °F 36 °F 7% 29.73 in 5 mi NW 10.4 mph - -   Scattered Clouds
3:00 PM 93.2 °F 35.6 °F 13% 29.83 in 5.0 mi NW 9.2 mph - N/A   Mostly Cloudy
3:30 PM 93.2 °F 33.8 °F 12% 29.83 in 5.0 mi WNW 11.5 mph - N/A   Mostly Cloudy
4:00 PM 91.4 °F 35.6 °F 14% 29.83 in 4.3 mi NW 6.9 mph - N/A   Scattered Clouds
4:30 PM 91.4 °F 35.6 °F 14% 29.83 in 5.0 mi WNW 10.4 mph - N/A   Scattered Clouds
5:00 PM 91.4 °F 37.4 °F 15% 29.83 in 4.3 mi WNW 6.9 mph - N/A   Scattered Clouds
5:30 PM 89.6 °F 35.6 °F 15% 29.83 in 4.3 mi WNW 5.8 mph - N/A   Scattered Clouds
6:00 PM 87 °F 43 °F 13% 29.77 in 3 mi SW 15.0 mph - -   Partly Cloudy
6:00 PM 87.8 °F 42.8 °F 21% 29.86 in 3.1 mi SW 10.4 mph 27.6 mph N/A   Scattered Clouds
6:03 PM 86.0 °F 42.8 °F 22% 29.86 in 2.5 mi SSW 20.7 mph 32.2 mph N/A   Sand
6:30 PM 86.0 °F 42.8 °F 22% 29.86 in 2.5 mi SSW 20.7 mph 32.2 mph N/A   Sand
7:00 PM 78.8 °F 46.4 °F 32% 29.92 in 5.0 mi WSW 19.6 mph 31.1 mph N/A Thunderstorm Thunderstorm
7:30 PM 84.2 °F 41.0 °F 22% 29.92 in 5.0 mi WSW 10.4 mph - N/A Thunderstorm Thunderstorm
8:00 PM 82.4 °F 42.8 °F 25% 29.89 in 5.0 mi NE 5.8 mph - N/A Thunderstorm Thunderstorm
8:30 PM 80.6 °F 46.4 °F 30% 29.92 in 4.3 mi Variable 2.3 mph - N/A Thunderstorm Thunderstorm
9:00 PM 79 °F 45 °F 19% 29.83 in 4 mi East 3.5 mph - -   Unknown
9:00 PM 78.8 °F 44.6 °F 30% 29.92 in 4.3 mi ENE 4.6 mph - N/A Thunderstorm Thunderstorm
9:30 PM 75.2 °F 46.4 °F 36% 29.92 in 3.7 mi East 5.8 mph - N/A Thunderstorm Thunderstorm
9:48 PM 75.2 °F 44.6 °F 34% 29.92 in 3.7 mi ESE 4.6 mph - N/A   Partly Cloudy
10:00 PM 75.2 °F 46.4 °F 36% 29.92 in 3.7 mi ESE 6.9 mph - N/A   Partly Cloudy
10:30 PM 77.0 °F 46.4 °F 34% 29.92 in 3.7 mi SE 6.9 mph - N/A   Partly Cloudy
11:00 PM 75.2 °F 44.6 °F 34% 29.89 in 4.3 mi SSE 6.9 mph - N/A   Unknown
11:30 PM 71.6 °F 44.6 °F 38% 29.89 in 4.3 mi ENE 4.6 mph - N/A   Unknown